{"data":{"norad_id":63703,"epoch":"2026-05-25T04:45:04.139712Z","epoch_age_seconds":58246,"freshness":"FRESH","line1":"1 63703U 25087G   26145.19796458  .00008313  00000+0  29248-3 0  9990","line2":"2 63703  53.1591 224.1607 0001240  86.2826 273.8317 15.30200820 60914","mean_motion":15.3020082,"eccentricity":0.000124,"inclination_deg":53.1591,"raan_deg":224.1607,"arg_perigee_deg":86.2826,"mean_anomaly_deg":273.8317,"bstar":0.00029248,"rev_number":6091,"period_min":94.105295277518,"perigee_km":474.36280569521,"apogee_km":476.06243640123,"semimajor_km":6853.3496210482,"source":"CELESTRAK","updated_at":"2026-05-25T13:38:20.097126Z"}}